| time (UTC) | temp F | wind direction | speed MPH | gust MPH | rain 1hr in | rain 24hr in | rain mn in | humidity % | barometer mb |
| 20260504150113 | 52 | 46 | 4.0 | 18.0 | 0.03 | 0.07 | 0.07 | 90 | 1011.0 |
| 20260504120105 | 48 | 218 | 3.0 | 13.0 | 0.03 | 0.04 | 0.04 | 93 | 1012.0 |
| 20260504090104 | 48 | 241 | 1.0 | 5.0 | 0.00 | 0.00 | 0.00 | 79 | 1011.1 |
| 20260504081554 | 50 | 193 | 3.0 | 8.0 | 0.00 | 0.00 | 0.00 | 73 | 1011.9 |
| 20260504044603 | 54 | 216 | 2.0 | 7.0 | 0.00 | 0.00 | 0.00 | 61 | 1013.1 |
| 20260504043057 | 54 | 249 | 1.0 | 6.0 | 0.00 | 0.00 | 0.00 | 60 | 1013.1 |
| 20260504041554 | 54 | 239 | 1.0 | 7.0 | 0.00 | 0.00 | 0.00 | 57 | 1013.4 |
| 20260504040107 | 55 | 216 | 2.0 | 4.0 | 0.00 | 0.00 | 0.00 | 56 | 1013.4 |
| 20260504034615 | 56 | 263 | 1.0 | 8.0 | 0.00 | 0.00 | 0.00 | 54 | 1013.5 |
| 20260504033051 | 55 | 260 | 3.0 | 9.0 | 0.00 | 0.00 | 0.00 | 54 | 1013.4 |
| 20260504031555 | 55 | 329 | 2.0 | 7.0 | 0.00 | 0.00 | 0.00 | 54 | 1013.3 |
| 20260504030118 | 55 | 279 | 2.0 | 4.0 | 0.00 | 0.00 | 0.00 | 53 | 1013.4 |
| 20260504024559 | 55 | 0 | 1.0 | 3.0 | 0.00 | 0.00 | 0.00 | 54 | 1013.3 |
| 20260504023051 | 54 | 0 | 0.0 | 4.0 | 0.00 | 0.00 | 0.00 | 53 | 1013.3 |
| 20260504021553 | 53 | 34 | 0.0 | 3.0 | 0.00 | 0.00 | 0.00 | 60 | 1013.1 |
| 20260504020105 | 55 | 9 | 1.0 | 3.0 | 0.00 | 0.00 | 0.00 | 55 | 1013.1 |
| 20260504014600 | 55 | 247 | 2.0 | 6.0 | 0.00 | 0.00 | 0.00 | 49 | 1012.7 |
| 20260504013055 | 55 | 238 | 1.0 | 4.0 | 0.00 | 0.00 | 0.00 | 51 | 1012.6 |
| 20260504011551 | 56 | 231 | 0.0 | 3.0 | 0.00 | 0.00 | 0.00 | 47 | 1012.6 |
| 20260504010052 | 56 | 0 | 0.0 | 3.0 | 0.00 | 0.00 | 0.00 | 47 | 1012.7 |
| 20260504004554 | 56 | 271 | 1.0 | 3.0 | 0.00 | 0.00 | 0.00 | 46 | 1012.6 |
| 20260504003056 | 57 | 0 | 0.0 | 1.0 | 0.00 | 0.00 | 0.00 | 45 | 1012.6 |
| 20260504001605 | 58 | 0 | 0.0 | 3.0 | 0.00 | 0.00 | 0.00 | 45 | 1013.1 |
| 20260504000056 | 58 | 323 | 1.0 | 4.0 | 0.00 | 0.00 | 0.00 | 43 | 1013.3 |
| 20260503234552 | 59 | 246 | 1.0 | 4.0 | 0.00 | 0.00 | 0.00 | 43 | 1012.9 |
| 20260503233059 | 59 | 277 | 1.0 | 4.0 | 0.00 | 0.00 | 0.00 | 42 | 1013.0 |
| 20260503231554 | 60 | 218 | 3.0 | 8.0 | 0.00 | 0.00 | 0.00 | 40 | 1012.9 |
| 20260503230050 | 60 | 222 | 2.0 | 9.0 | 0.00 | 0.00 | 0.00 | 39 | 1013.1 |
| 20260503224553 | 62 | 286 | 5.0 | 11.0 | 0.00 | 0.00 | 0.00 | 36 | 1013.2 |
| 20260503223054 | 62 | 235 | 5.0 | 12.0 | 0.00 | 0.00 | 0.00 | 36 | 1013.3 |
| 20260503221550 | 61 | 261 | 5.0 | 12.0 | 0.00 | 0.00 | 0.00 | 35 | 1013.2 |
| 20260503220055 | 62 | 227 | 5.0 | 12.0 | 0.00 | 0.00 | 0.00 | 35 | 1013.5 |
| 20260503214600 | 62 | 190 | 2.0 | 16.0 | 0.00 | 0.00 | 0.00 | 35 | 1013.4 |
| 20260503213054 | 62 | 235 | 5.0 | 22.0 | 0.00 | 0.00 | 0.00 | 37 | 1013.6 |
| 20260503211556 | 62 | 214 | 6.0 | 14.0 | 0.00 | 0.00 | 0.00 | 36 | 1013.8 |
| 20260503210051 | 62 | 289 | 5.0 | 9.0 | 0.00 | 0.00 | 0.00 | 36 | 1014.1 |
| 20260503204557 | 61 | 263 | 4.0 | 14.0 | 0.00 | 0.00 | 0.00 | 37 | 1014.1 |
| 20260503203053 | 61 | 225 | 3.0 | 10.0 | 0.00 | 0.00 | 0.00 | 38 | 1014.3 |
| 20260503201554 | 60 | 200 | 8.0 | 17.0 | 0.00 | 0.00 | 0.00 | 35 | 1014.2 |
| 20260503200052 | 60 | 209 | 3.0 | 12.0 | 0.00 | 0.00 | 0.00 | 39 | 1014.6 |
| 20260503194551 | 59 | 225 | 3.0 | 13.0 | 0.00 | 0.00 | 0.00 | 37 | 1015.1 |
| 20260503193110 | 59 | 204 | 7.0 | 17.0 | 0.00 | 0.00 | 0.00 | 36 | 1015.3 |
| 20260503191555 | 60 | 220 | 4.0 | 11.0 | 0.00 | 0.00 | 0.00 | 39 | 1015.6 |
| 20260503190106 | 59 | 200 | 6.0 | 10.0 | 0.00 | 0.00 | 0.00 | 38 | 1015.9 |
| 20260503184552 | 59 | 175 | 3.0 | 8.0 | 0.00 | 0.00 | 0.00 | 38 | 1016.0 |
| 20260503183101 | 58 | 281 | 5.0 | 13.0 | 0.00 | 0.00 | 0.00 | 39 | 1016.3 |
| 20260503181555 | 58 | 298 | 4.0 | 13.0 | 0.00 | 0.00 | 0.00 | 40 | 1016.5 |
| 20260503180059 | 57 | 344 | 2.0 | 8.0 | 0.00 | 0.00 | 0.00 | 41 | 1016.6 |
| 20260503174557 | 57 | 254 | 7.0 | 14.0 | 0.00 | 0.00 | 0.00 | 39 | 1017.1 |
| 20260503173111 | 56 | 248 | 2.0 | 13.0 | 0.00 | 0.00 | 0.00 | 41 | 1017.3 |
| 20260503171553 | 56 | 213 | 1.0 | 12.0 | 0.00 | 0.00 | 0.00 | 43 | 1017.3 |